When you browse on this site, cookies collect data to enhance your experience and personalize the content and advertising you see.
Visit our Privacy Policy to learn more. By continuing to use the site, you agree to this use of cookies and data.

Hourly Weather Pervoe Maya

Today, 11 August, Tuesday

Time Temperature Precipitation Wind Pressure Humidity
00:00 +14°C° 0 mm 3 mps 748 mmHg 92%
01:00 +14°C° 0 mm 2 mps 748 mmHg 92%
02:00 +13°C° 0 mm 2 mps 748 mmHg 96%
03:00 +12°C° 0 mm 3 mps 748 mmHg 96%
04:00 +11°C° 0 mm 3 mps 748 mmHg 97%
05:00 +11°C° 0 mm 3 mps 748 mmHg 97%
06:00 +12°C° 0 mm 3 mps 748 mmHg 93%
07:00 +13°C° 0 mm 3 mps 748 mmHg 90%
08:00 +13°C° 0 mm 3 mps 748 mmHg 86%
09:00 +16°C° 0 mm 3 mps 748 mmHg 78%
10:00 +17°C° 0 mm 3 mps 748 mmHg 69%
11:00 +18°C° 0 mm 3 mps 748 mmHg 60%
12:00 +18°C° 0.2 mm 3 mps 748 mmHg 66%
13:00 +17°C° 0.2 mm 3 mps 748 mmHg 72%
14:00 +15°C° 0.2 mm 4 mps 749 mmHg 78%
15:00 +15°C° 0 mm 4 mps 748 mmHg 77%
16:00 +16°C° 0 mm 3 mps 748 mmHg 76%
17:00 +16°C° 0 mm 3 mps 748 mmHg 75%
18:00 +14°C° 0 mm 3 mps 748 mmHg 79%
19:00 +13°C° 0 mm 3 mps 748 mmHg 83%
20:00 +12°C° 0 mm 3 mps 748 mmHg 87%
21:00 +12°C° 0 mm 3 mps 748 mmHg 89%
22:00 +12°C° 0 mm 2 mps 748 mmHg 91%
23:00 +12°C° 0 mm 2 mps 748 mmHg 93%

Tomorrow, 12 August, Wednesday

Time Temperature Precipitation Wind Pressure Humidity
00:00 +12°C° 0 mm 2 mps 748 mmHg 95%
01:00 +12°C° 0 mm 2 mps 748 mmHg 96%
02:00 +10°C° 0 mm 2 mps 747 mmHg 98%
03:00 +11°C° 0 mm 3 mps 747 mmHg 96%
04:00 +12°C° 0 mm 3 mps 747 mmHg 94%
05:00 +12°C° 0 mm 3 mps 747 mmHg 92%
06:00 +13°C° 0 mm 3 mps 747 mmHg 91%
07:00 +13°C° 0 mm 4 mps 747 mmHg 89%
08:00 +13°C° 0 mm 4 mps 747 mmHg 88%
09:00 +13°C° 0.1 mm 4 mps 748 mmHg 87%
10:00 +13°C° 0.1 mm 5 mps 748 mmHg 86%
11:00 +13°C° 0.1 mm 5 mps 748 mmHg 85%
12:00 +13°C° 0.1 mm 5 mps 748 mmHg 84%
13:00 +13°C° 0.1 mm 5 mps 748 mmHg 83%
14:00 +14°C° 0.1 mm 6 mps 748 mmHg 82%
15:00 +13°C° 0.1 mm 5 mps 749 mmHg 84%
16:00 +13°C° 0.1 mm 5 mps 749 mmHg 86%
17:00 +13°C° 0.1 mm 5 mps 749 mmHg 88%
18:00 +13°C° 0.1 mm 5 mps 749 mmHg 87%
19:00 +12°C° 0.1 mm 4 mps 749 mmHg 86%
20:00 +12°C° 0.1 mm 4 mps 749 mmHg 85%
21:00 +12°C° 0 mm 4 mps 749 mmHg 83%
22:00 +12°C° 0 mm 4 mps 749 mmHg 80%
23:00 +12°C° 0 mm 4 mps 749 mmHg 78%

Day after tomorrow, 13 August, Thursday

Time Temperature Precipitation Wind Pressure Humidity
00:00 +12°C° 0 mm 4 mps 749 mmHg 78%
01:00 +12°C° 0 mm 4 mps 749 mmHg 78%
02:00 +12°C° 0 mm 4 mps 749 mmHg 78%
03:00 +12°C° 0 mm 3 mps 749 mmHg 78%
04:00 +11°C° 0 mm 3 mps 749 mmHg 79%
05:00 +11°C° 0 mm 3 mps 749 mmHg 79%
06:00 +11°C° 0 mm 3 mps 749 mmHg 79%
07:00 +12°C° 0 mm 3 mps 749 mmHg 79%
08:00 +12°C° 0 mm 3 mps 749 mmHg 79%
09:00 +12°C° 0.1 mm 3 mps 749 mmHg 78%
10:00 +12°C° 0.1 mm 3 mps 749 mmHg 77%
11:00 +13°C° 0.1 mm 3 mps 749 mmHg 76%
12:00 +14°C° 0 mm 3 mps 749 mmHg 71%
13:00 +16°C° 0 mm 3 mps 749 mmHg 65%
14:00 +17°C° 0 mm 3 mps 749 mmHg 59%
15:00 +16°C° 0.1 mm 3 mps 749 mmHg 64%
16:00 +14°C° 0.1 mm 3 mps 749 mmHg 68%
17:00 +14°C° 0.1 mm 3 mps 749 mmHg 73%
18:00 +14°C° 0 mm 2 mps 749 mmHg 76%
19:00 +13°C° 0 mm 2 mps 749 mmHg 79%
20:00 +12°C° 0 mm 2 mps 749 mmHg 82%
21:00 +12°C° 0 mm 2 mps 749 mmHg 84%
22:00 +10°C° 0 mm 2 mps 749 mmHg 86%
23:00 +9°C° 0 mm 2 mps 749 mmHg 88%

14 August, Friday

Time Temperature Precipitation Wind Pressure Humidity
00:00 +9°C° 0 mm 2 mps 749 mmHg 91%
01:00 +8°C° 0 mm 2 mps 749 mmHg 93%
02:00 +8°C° 0 mm 2 mps 749 mmHg 96%
03:00 +8°C° 0 mm 2 mps 750 mmHg 95%
04:00 +8°C° 0 mm 2 mps 750 mmHg 95%
05:00 +8°C° 0 mm 2 mps 750 mmHg 94%
06:00 +9°C° 0 mm 2 mps 750 mmHg 86%
07:00 +11°C° 0 mm 3 mps 750 mmHg 78%
08:00 +13°C° 0 mm 3 mps 750 mmHg 70%
09:00 +14°C° 0 mm 3 mps 750 mmHg 64%
10:00 +17°C° 0 mm 3 mps 750 mmHg 58%
11:00 +18°C° 0 mm 3 mps 750 mmHg 52%
12:00 +18°C° 0 mm 3 mps 750 mmHg 51%
13:00 +19°C° 0 mm 3 mps 750 mmHg 50%
14:00 +19°C° 0 mm 3 mps 750 mmHg 49%
15:00 +18°C° 0.1 mm 3 mps 750 mmHg 55%
16:00 +18°C° 0.1 mm 3 mps 750 mmHg 61%
17:00 +17°C° 0.1 mm 2 mps 750 mmHg 67%
18:00 +16°C° 0 mm 2 mps 750 mmHg 74%
19:00 +14°C° 0 mm 2 mps 750 mmHg 82%
20:00 +12°C° 0 mm 1 mps 750 mmHg 89%
21:00 +12°C° 0 mm 1 mps 751 mmHg 91%
22:00 +11°C° 0 mm 1 mps 751 mmHg 93%
23:00 +10°C° 0 mm 2 mps 751 mmHg 95%

15 August, Saturday

Time Temperature Precipitation Wind Pressure Humidity
00:00 +10°C° 0 mm 1 mps 751 mmHg 95%
01:00 +10°C° 0 mm 1 mps 751 mmHg 95%
02:00 +10°C° 0 mm 1 mps 751 mmHg 95%
03:00 +10°C° 0 mm 1 mps 751 mmHg 95%
04:00 +10°C° 0 mm 1 mps 751 mmHg 94%
05:00 +10°C° 0 mm 1 mps 751 mmHg 94%
06:00 +11°C° 0 mm 1 mps 751 mmHg 90%
07:00 +13°C° 0 mm 1 mps 751 mmHg 86%
08:00 +14°C° 0 mm 1 mps 751 mmHg 83%
09:00 +15°C° 0 mm 2 mps 751 mmHg 75%
10:00 +17°C° 0 mm 2 mps 751 mmHg 68%
11:00 +19°C° 0 mm 2 mps 751 mmHg 61%
12:00 +19°C° 0.4 mm 2 mps 750 mmHg 65%
13:00 +19°C° 0.4 mm 2 mps 750 mmHg 68%
14:00 +19°C° 0.4 mm 2 mps 750 mmHg 72%
15:00 +19°C° 0.2 mm 2 mps 750 mmHg 73%
16:00 +20°C° 0.2 mm 1 mps 750 mmHg 73%
17:00 +20°C° 0.2 mm 1 mps 750 mmHg 74%
18:00 +18°C° 0 mm 1 mps 750 mmHg 79%
19:00 +15°C° 0 mm 1 mps 750 mmHg 84%
20:00 +13°C° 0 mm 1 mps 750 mmHg 89%
21:00 +13°C° 0 mm 1 mps 750 mmHg 90%
22:00 +12°C° 0 mm 1 mps 750 mmHg 91%
23:00 +11°C° 0 mm 0 mps 750 mmHg 92%

16 August, Sunday

Time Temperature Precipitation Wind Pressure Humidity
00:00 +10°C° 0 mm 0 mps 751 mmHg 92%
01:00 +10°C° 0 mm 0 mps 751 mmHg 92%
02:00 +10°C° 0 mm 0 mps 751 mmHg 92%
03:00 +10°C° 0 mm 0 mps 751 mmHg 92%
04:00 +10°C° 0 mm 0 mps 751 mmHg 91%
05:00 +10°C° 0 mm 0 mps 751 mmHg 90%
06:00 +12°C° 0 mm 0 mps 751 mmHg 84%
07:00 +14°C° 0 mm 0 mps 751 mmHg 78%
08:00 +18°C° 0 mm 1 mps 751 mmHg 73%
09:00 +19°C° 0 mm 1 mps 751 mmHg 66%
10:00 +21°C° 0 mm 1 mps 751 mmHg 59%
11:00 +22°C° 0 mm 1 mps 751 mmHg 52%
12:00 +22°C° 0 mm 1 mps 751 mmHg 51%
13:00 +23°C° 0 mm 1 mps 751 mmHg 50%
14:00 +23°C° 0 mm 2 mps 751 mmHg 49%
15:00 +21°C° 0 mm 2 mps 751 mmHg 55%
16:00 +22°C° 0 mm 1 mps 751 mmHg 60%
17:00 +21°C° 0 mm 1 mps 751 mmHg 65%
18:00 +19°C° 0 mm 1 mps 751 mmHg 71%
19:00 +16°C° 0 mm 1 mps 751 mmHg 78%
20:00 +14°C° 0 mm 1 mps 751 mmHg 84%
21:00 +13°C° 0 mm 0 mps 751 mmHg 85%
22:00 +12°C° 0 mm 0 mps 751 mmHg 86%
23:00 +11°C° 0 mm 0 mps 751 mmHg 86%
Show more